Wind_Speed
52 49 48 44 41 38 35 34 34 32 30 34 31 29 29 25 22 20 17 17 17 17 11 13 22 19 18 20 20 21 21 22 21 20 21 23 24 29 31 32 35 37 42 43
52 49 46 43 42 40 36 35 35 32 31 32 31 31 30 27 23 20 17 16 17 17 13 12 17 15 14 13 12 10 12 16 17 19 23 27 31 33 33 36 40 40 42 43
54 50 47 45 43 40 39 36 36 34 31 30 32 34 33 28 24 22 18 17 17 17 14 14 16 15 14 14 13 16 19 22 25 27 29 30 32 35 39 40 40 41 42 39
58 52 48 47 44 42 40 38 37 36 34 30 33 37 34 29 26 24 19 17 16 15 15 12 18 18 20 20 19 22 24 23 19 21 25 27 29 31 32 34 36 36 35 34
61 55 51 48 46 43 41 39 38 36 33 31 35 38 34 31 28 24 19 17 14 14 12 10 7 7 7 10 11 11 9 10 10 10 12 13 13 15 16 15 17 19 21 22
64 58 52 49 48 44 42 41 38 35 34 32 34 33 33 32 30 26 21 17 15 12 11 10 10 9 8 6 8 9 12 12 13 13 15 15 15 15 15 15 15 17 19 21
66 60 54 50 48 45 43 41 39 36 33 33 31 32 35 35 30 27 23 19 16 15 14 13 11 10 9 10 11 12 14 12 13 14 14 15 15 14 15 16 15 19 21 24
68 63 55 51 49 47 43 42 41 37 34 35 35 35 38 37 32 29 24 21 19 19 19 16 14 13 12 11 11 12 12 11 12 11 12 15 15 16 15 17 19 21 23 27
70 65 57 52 50 48 44 43 42 38 37 36 36 35 35 35 32 27 24 23 22 22 19 17 16 15 13 11 10 10 10 11 12 12 14 15 17 18 19 21 22 25 26 30
71 65 59 54 50 48 44 43 43 40 39 37 38 35 32 34 33 29 27 25 23 22 19 18 18 16 13 12 10 11 12 13 14 13 13 15 16 18 20 23 25 27 30 33
72 66 60 55 52 48 45 44 44 42 40 38 36 35 31 33 33 32 29 28 26 24 20 19 18 16 15 13 13 13 14 15 15 14 15 16 16 20 22 24 27 28 31 34
73 67 62 57 53 48 47 45 45 42 40 39 35 36 33 32 36 36 33 30 27 24 21 19 19 18 17 17 14 15 16 15 15 16 17 17 19 21 23 25 27 28 29 33
73 68 63 59 54 49 48 47 44 42 40 38 37 37 36 34 33 35 35 33 31 28 25 24 22 20 20 19 16 17 17 16 16 17 17 19 22 23 25 27 29 30 31 32
73 68 65 60 55 50 48 47 44 41 39 39 38 36 36 34 31 30 34 35 33 31 29 26 23 22 20 19 18 20 18 19 18 19 21 23 25 27 28 29 31 32 31 33
73 69 66 61 56 52 49 47 45 41 39 39 37 36 35 35 33 30 30 31 32 31 29 27 25 24 22 22 21 23 20 18 19 22 24 26 27 29 30 31 33 32 30 31
73 69 66 61 56 53 50 47 46 42 39 38 39 38 36 34 33 31 29 28 29 30 28 27 25 25 24 23 24 25 21 19 20 23 26 28 29 30 31 32 33 31 30 33
72 69 66 61 56 53 50 47 44 42 39 37 38 38 35 33 32 31 30 29 27 28 28 26 26 25 25 24 26 25 22 20 22 26 28 28 29 31 32 32 33 32 33 35
71 69 65 60 57 54 50 45 44 41 38 37 38 37 34 31 30 31 31 30 29 28 27 27 26 25 26 27 27 24 23 22 25 28 29 28 29 30 31 33 33 34 35 36
70 68 64 61 59 55 50 46 45 42 40 39 37 35 34 32 30 29 30 30 28 28 27 26 26 25 27 25 24 24 25 25 26 30 29 30 29 29 31 33 34 34 34 33
70 68 66 62 59 55 50 48 47 44 41 39 36 34 33 30 30 29 29 29 29 28 26 26 26 25 26 25 25 25 27 28 28 28 28 28 28 29 31 32 34 33 33 32
72 70 66 61 58 55 52 50 49 45 42 39 37 36 34 33 31 30 29 27 27 27 26 26 25 25 26 26 25 26 28 27 27 27 27 27 28 28 30 32 32 33 34 31
69 67 63 60 59 56 53 51 48 45 41 37 34 32 32 32 33 31 27 27 26 26 24 26 24 25 27 26 26 25 26 26 26 27 27 26 26 27 29 31 32 34 32 29
68 65 63 62 60 57 51 48 46 43 41 36 35 29 29 31 31 28 26 26 27 25 25 25 23 24 25 25 24 24 24 24 26 26 25 25 24 25 29 29 32 33 29 28
64 66 65 62 57 52 47 44 41 40 38 33 32 29 26 26 28 29 30 31 29 28 25 22 25 24 23 23 23 24 25 24 23 23 23 22 23 26 28 29 31 31 29 27
62 62 62 58 53 50 47 44 42 41 38 35 33 31 28 27 25 25 26 25 26 24 22 25 25 23 22 23 23 22 21 21 22 22 22 22 24 26 28 29 31 29 27 26
60 59 58 56 53 49 46 44 42 40 38 37 35 33 30 29 29 28 27 24 22 21 20 20 22 21 19 19 20 21 21 21 21 21 22 23 24 26 27 28 31 25 25 23
56 55 55 53 52 50 47 45 42 41 38 36 33 31 31 28 28 26 25 24 24 24 22 23 22 22 23 23 21 20 19 20 21 21 20 22 25 25 26 30 22 21 21 17
Wind_Direction
217 218 220 220 219 220 216 216 216 217 218 218 213 212 219 223 227 237 248 265 269 271 255 238 237 243 231 231 230 234 242 249 253 256 263 267 270 272 278 287 291 295 299 302
213 216 217 218 216 216 215 215 214 216 219 218 212 213 218 218 221 229 241 257 263 268 248 229 233 234 239 235 238 246 251 261 271 271 270 270 273 278 281 286 290 294 298 301
211 213 214 215 215 214 214 214 213 212 218 217 211 214 217 215 219 225 235 251 254 257 252 217 213 223 227 230 245 260 266 263 264 265 268 271 272 276 280 282 285 290 293 300
211 212 213 214 213 212 212 212 212 210 213 212 210 215 214 213 213 221 230 245 250 249 247 236 225 228 226 234 255 262 263 272 272 269 269 271 273 277 279 280 284 287 293 301
210 210 211 211 212 211 211 210 209 210 213 212 212 214 212 211 212 217 223 229 236 240 235 212 215 223 208 209 230 257 281 288 297 298 296 297 298 294 298 297 294 298 304 307
207 210 209 209 210 210 210 210 207 209 212 212 213 217 214 211 213 214 213 219 222 214 198 176 174 192 197 217 246 259 275 285 293 297 300 304 304 309 309 312 310 308 312 320
205 208 208 207 208 208 208 207 207 210 214 214 212 213 213 213 211 212 210 210 203 202 206 201 203 211 225 240 255 265 273 277 283 294 298 302 307 311 312 312 312 317 322 327
203 205 206 204 206 208 206 206 206 210 212 210 210 214 212 212 210 211 210 208 209 212 217 223 229 232 236 248 261 271 281 289 291 297 296 299 304 307 310 316 317 318 325 327
202 203 203 202 204 205 204 204 204 207 209 210 210 215 215 213 212 210 210 208 214 219 222 227 231 237 244 253 270 283 291 294 298 302 297 303 308 311 317 318 318 323 326 328
200 201 201 199 203 203 201 202 205 208 208 211 211 214 214 213 213 207 208 208 212 219 222 226 234 240 246 264 283 294 299 299 300 300 302 302 308 314 317 318 323 324 325 328
198 199 200 198 202 201 200 201 204 208 206 212 213 213 214 209 210 210 209 212 216 223 226 232 239 244 250 263 278 292 297 298 303 308 306 311 315 315 318 320 321 322 323 329
197 197 197 197 200 197 198 200 204 207 207 210 212 213 215 213 210 211 211 217 220 222 226 233 240 245 252 259 272 286 291 298 302 304 314 319 315 316 316 317 317 317 319 325
195 196 196 196 197 195 197 200 202 206 208 209 212 213 214 215 216 215 216 218 221 225 226 229 236 241 247 261 272 282 288 295 300 309 311 311 312 313 311 315 312 312 317 326
194 195 195 195 196 195 197 199 201 206 209 211 211 215 216 216 217 218 221 223 227 229 232 235 237 241 247 257 266 274 281 291 303 305 305 307 309 310 312 314 315 316 320 326
193 194 195 195 194 196 198 198 202 205 208 208 206 211 216 218 217 218 221 225 229 233 236 236 237 240 245 252 258 267 276 287 296 300 303 304 306 308 312 314 315 315 318 322
191 193 194 194 193 196 198 197 201 204 208 207 208 212 214 217 219 218 221 225 228 230 232 233 233 237 243 250 259 266 273 283 289 293 295 300 302 304 308 312 314 316 316 320
190 192 193 192 193 197 199 199 202 204 207 207 209 210 213 215 218 218 219 223 227 229 231 232 235 239 246 250 257 264 276 280 286 286 294 297 298 302 308 311 313 316 319 321
189 191 192 191 193 196 197 195 200 202 205 208 211 214 213 214 217 219 219 221 225 228 230 232 236 240 246 250 258 268 272 278 282 286 290 292 294 299 304 309 314 318 320 323
187 190 191 192 192 194 195 193 198 201 204 208 211 210 211 214 217 220 223 224 225 228 232 235 240 242 248 254 258 264 270 274 278 286 290 289 294 298 303 311 318 321 324 325
186 188 190 191 191 193 192 193 197 201 204 206 207 209 211 215 218 220 223 225 227 229 233 237 241 244 249 253 257 261 267 275 282 284 286 289 292 296 303 313 319 321 326 324
186 188 190 190 191 193 193 195 198 201 203 205 207 210 212 216 218 219 222 225 228 231 233 238 241 244 250 254 256 261 270 277 279 283 286 287 290 297 308 316 321 323 328 322
187 188 189 192 194 195 194 196 199 200 201 202 204 211 212 215 219 223 224 227 229 231 233 239 242 246 251 255 261 264 271 277 280 283 285 285 291 301 311 318 321 327 326 320
186 188 192 194 196 197 199 201 202 202 201 200 206 209 207 206 210 213 217 224 230 234 236 243 243 245 251 257 263 269 273 277 280 280 281 286 293 303 314 318 321 326 321 320
189 191 193 195 196 198 201 202 203 204 204 200 203 204 205 209 215 219 224 231 234 238 241 241 245 249 255 262 265 268 272 274 276 278 280 284 295 307 313 316 320 323 319 320
192 193 195 196 197 198 201 202 201 203 203 202 202 203 203 208 211 215 219 224 229 233 239 244 252 256 259 264 267 268 269 271 272 274 279 287 297 307 309 314 317 318 319 322
194 194 194 195 196 198 200 201 201 203 204 203 202 203 206 209 213 215 221 229 234 238 239 244 252 258 258 257 259 264 267 269 272 275 280 290 300 304 307 311 316 314 319 320
193 192 194 193 194 197 199 201 201 201 204 205 206 208 210 213 217 222 227 233 237 240 245 248 252 255 259 263 263 264 268 271 274 278 285 295 299 301 307 313 312 318 316 311
Height
5676 5685 5694 5702 5710 5717 5724 5730 5736 5742 5746 5753 5759 5764 5767 5773 5777 5779 5783 5785 5785 5785 5785 5787 5788 5791 5793 5795 5797 5799 5801 5802 5803 5804 5803 5803 5803 5800 5800 5800 5798 5794 5790 5788
5667 5677 5686 5694 5702 5710 5718 5724 5731 5736 5741 5748 5755 5758 5763 5769 5772 5775 5779 5781 5782 5782 5783 5785 5786 5788 5791 5794 5795 5797 5798 5798 5799 5799 5800 5798 5796 5796 5794 5792 5790 5787 5785 5781
5658 5668 5678 5687 5695 5703 5711 5718 5724 5731 5736 5743 5749 5752 5757 5765 5768 5771 5775 5776 5777 5779 5780 5782 5784 5786 5789 5791 5793 5794 5794 5795 5795 5795 5794 5793 5791 5789 5787 5786 5784 5782 5778 5774
5649 5660 5670 5680 5688 5696 5704 5712 5718 5725 5730 5738 5743 5746 5753 5760 5764 5767 5771 5773 5775 5776 5777 5779 5781 5783 5786 5789 5790 5788 5790 5789 5789 5788 5787 5786 5785 5784 5782 5781 5779 5776 5773 5769
5640 5652 5661 5671 5680 5689 5698 5706 5713 5720 5727 5732 5737 5740 5748 5755 5759 5763 5767 5771 5772 5773 5775 5776 5778 5780 5782 5783 5785 5785 5785 5786 5785 5784 5783 5782 5782 5780 5778 5776 5774 5771 5769 5765
5631 5644 5655 5665 5674 5683 5692 5700 5707 5714 5721 5726 5732 5739 5745 5750 5754 5759 5763 5767 5770 5771 5773 5774 5776 5778 5780 5782 5783 5784 5784 5784 5782 5782 5780 5779 5779 5776 5775 5773 5771 5768 5765 5762
5623 5636 5648 5658 5668 5677 5686 5694 5703 5710 5716 5722 5728 5732 5738 5744 5750 5755 5759 5763 5767 5770 5770 5772 5774 5777 5779 5780 5781 5781 5781 5781 5780 5779 5777 5777 5775 5773 5772 5770 5767 5764 5760 5756
5614 5627 5640 5651 5661 5669 5679 5688 5696 5703 5710 5716 5721 5725 5731 5738 5745 5750 5755 5759 5764 5766 5769 5771 5773 5775 5777 5777 5777 5777 5777 5777 5776 5776 5774 5773 5772 5770 5768 5766 5763 5759 5756 5751
5605 5620 5633 5644 5654 5663 5673 5682 5690 5697 5705 5710 5715 5720 5727 5734 5741 5748 5752 5755 5758 5762 5765 5768 5770 5771 5773 5774 5774 5774 5774 5773 5773 5772 5771 5769 5767 5764 5762 5760 5758 5754 5750 5746
5597 5613 5626 5637 5647 5657 5668 5676 5684 5691 5698 5705 5710 5715 5723 5730 5737 5743 5747 5750 5754 5758 5761 5764 5766 5768 5769 5769 5770 5770 5770 5769 5768 5768 5768 5766 5763 5760 5758 5756 5755 5748 5744 5739
5590 5606 5619 5630 5640 5651 5662 5671 5678 5685 5693 5699 5706 5711 5718 5725 5731 5737 5743 5746 5749 5753 5757 5760 5761 5763 5765 5765 5766 5766 5766 5765 5765 5765 5764 5763 5760 5758 5756 5752 5747 5743 5739 5734
5583 5598 5612 5623 5635 5645 5655 5664 5672 5680 5688 5695 5701 5706 5713 5719 5725 5731 5736 5741 5745 5749 5752 5755 5757 5759 5760 5761 5763 5763 5762 5762 5762 5761 5760 5758 5756 5753 5750 5747 5744 5739 5735 5730
5576 5592 5605 5617 5628 5640 5650 5659 5667 5675 5682 5689 5695 5700 5707 5713 5719 5725 5731 5735 5739 5742 5746 5749 5752 5754 5756 5756 5758 5758 5758 5758 5758 5758 5756 5753 5751 5749 5746 5743 5739 5735 5731 5725
5570 5586 5599 5611 5624 5634 5644 5653 5662 5670 5677 5684 5691 5696 5702 5708 5714 5720 5724 5729 5733 5737 5741 5745 5747 5749 5752 5752 5753 5753 5755 5754 5755 5753 5751 5749 5747 5744 5741 5738 5733 5729 5724 5719
5564 5580 5594 5606 5619 5628 5638 5648 5657 5664 5673 5678 5685 5690 5696 5702 5708 5714 5718 5723 5727 5731 5735 5739 5742 5744 5746 5747 5748 5748 5751 5751 5750 5748 5746 5744 5742 5738 5735 5731 5727 5723 5719 5714
5560 5575 5589 5601 5613 5623 5632 5642 5651 5659 5665 5673 5679 5685 5690 5697 5703 5709 5714 5717 5721 5725 5729 5733 5736 5738 5741 5742 5742 5743 5746 5747 5745 5743 5741 5739 5736 5733 5730 5726 5722 5718 5713 5708
5555 5571 5584 5597 5608 5617 5628 5639 5648 5654 5661 5668 5674 5679 5685 5691 5698 5703 5708 5712 5716 5720 5723 5727 5731 5733 5735 5736 5736 5738 5740 5740 5739 5736 5735 5733 5730 5727 5724 5721 5717 5713 5708 5703
5552 5567 5580 5592 5602 5612 5623 5634 5641 5649 5656 5663 5669 5675 5682 5687 5692 5698 5703 5707 5711 5714 5718 5722 5725 5728 5729 5730 5731 5733 5733 5733 5732 5730 5729 5727 5724 5722 5719 5716 5712 5707 5702 5697
5549 5562 5574 5585 5594 5607 5619 5628 5635 5643 5651 5656 5665 5672 5677 5682 5687 5692 5697 5701 5705 5709 5712 5716 5719 5721 5722 5725 5726 5726 5726 5726 5726 5723 5723 5720 5718 5716 5714 5710 5706 5701 5696 5691
5542 5554 5566 5579 5591 5602 5613 5621 5629 5638 5644 5653 5660 5667 5673 5678 5683 5687 5692 5696 5699 5704 5708 5710 5712 5715 5716 5718 5718 5719 5719 5719 5719 5717 5716 5714 5713 5711 5708 5705 5700 5696 5691 5686
5533 5548 5565 5580 5589 5597 5606 5615 5624 5633 5641 5648 5655 5662 5667 5672 5677 5681 5686 5690 5694 5698 5702 5704 5706 5709 5710 5711 5712 5712 5712 5713 5712 5711 5710 5708 5707 5705 5702 5698 5694 5690 5685 5681
5539 5554 5566 5574 5581 5591 5601 5610 5620 5629 5638 5645 5652 5658 5662 5667 5672 5677 5682 5685 5689 5691 5696 5697 5700 5702 5702 5704 5705 5706 5706 5706 5705 5704 5703 5702 5701 5699 5696 5693 5689 5684 5679 5675
5538 5549 5558 5565 5576 5586 5598 5609 5619 5627 5634 5642 5648 5654 5657 5662 5667 5672 5677 5680 5683 5687 5690 5692 5695 5696 5697 5698 5699 5700 5700 5699 5699 5698 5697 5697 5696 5693 5690 5687 5683 5679 5674 5670
5533 5542 5553 5563 5575 5589 5602 5611 5618 5626 5633 5639 5645 5650 5654 5659 5664 5667 5671 5674 5679 5681 5685 5688 5688 5690 5692 5693 5694 5693 5693 5693 5692 5692 5692 5691 5690 5688 5685 5681 5677 5673 5669 5665
5532 5544 5553 5565 5579 5590 5599 5608 5615 5622 5628 5635 5640 5646 5651 5655 5659 5663 5667 5670 5672 5677 5680 5681 5682 5684 5686 5686 5686 5686 5687 5687 5687 5686 5686 5685 5684 5682 5679 5675 5672 5668 5664 5661
5532 5544 5557 5567 5579 5588 5597 5604 5611 5617 5624 5630 5635 5640 5646 5650 5654 5658 5662 5666 5669 5672 5674 5675 5677 5678 5679 5680 5680 5681 5681 5681 5681 5681 5680 5679 5678 5675 5673 5670 5666 5663 5660 5656
5532 5544 5556 5566 5574 5583 5591 5599 5606 5612 5619 5626 5632 5637 5641 5646 5649 5654 5657 5661 5664 5666 5668 5670 5671 5673 5673 5674 5674 5675 5675 5675 5675 5674 5674 5673 5671 5669 5667 5664 5660 5658 5655 5653